Overview Statistics Trail Chart Weather Telemetry Raw packets
 

This is the latest recevied weather packets stored in our database for station/object W6MAF. If no packets are shown the sender has not sent any weather packets the latest 10 day(s).

<< 98 99 100 101 102 103 104 >>
Time Temp. Humidity Pressure Rain* Wind** Luminosity Snow
1787949092 32.22° C 6% - 0 mm 7.6 m/s, 183° - -
1787948795 32.22° C 6% - 0 mm 6.71 m/s, 194° - -
1787948494 32.22° C 6% - 0 mm 8.49 m/s, 184° - -
1787948196 32.22° C 6% - 0 mm 8.05 m/s, 174° - -
1787947898 32.22° C 6% - 0 mm 8.05 m/s, 181° - -
1787947648 32.22° C 6% - 0 mm 7.15 m/s, 194° - -
1787947600 32.22° C 6% - 0 mm 7.15 m/s, 194° - -
1787947302 32.22° C 6% - 0 mm 6.71 m/s, 155° - -
1787947005 32.78° C 6% - 0 mm 7.6 m/s, 187° - -
1787946704 32.78° C 6% - 0 mm 8.49 m/s, 183° - -
1787946406 32.22° C 6% - 0 mm 8.94 m/s, 204° - -
1787945810 32.22° C 6% - 0 mm 5.81 m/s, 204° - -
1787945215 32.78° C 6% - 0 mm 5.81 m/s, 203° - -
1787944914 32.78° C 6% - 0 mm 6.71 m/s, 187° - -
1787944616 32.78° C 5% - 0 mm 7.15 m/s, 200° - -
1787944021 32.22° C 5% - 0 mm 7.15 m/s, 183° - -
1787943124 32.78° C 5% - 0 mm 7.6 m/s, 204° - -
1787942528 33.33° C 5% - 0 mm 4.47 m/s, 211° - -
1787941933 33.89° C 5% - 0 mm 4.47 m/s, 176° - -
1787941635 33.89° C 5% - 0 mm 5.36 m/s, 225° - -
1787941334 33.89° C 5% - 0 mm 5.36 m/s, 195° - -
1787940739 33.33° C 5% - 0 mm 4.47 m/s, 191° - -
1787940441 33.33° C 5% - 0 mm 6.71 m/s, 159° - -
1787940143 33.33° C 5% - 0 mm 4.92 m/s, 172° - -
1787939845 33.33° C 5% - 0 mm 5.81 m/s, 183° - -

* Rain latest hour (hover to see other rain measurements)
** Current wind speed in m/s (hover to see current wind gust speed)